Tracking 25370 objects as of 25-Jan-2022
HD Live streaming from Space Station
objects crossing your sky now

STARLINK-2333

Track STARLINK-2333 now!
10-day predictions
STARLINK-2333 is classified as:


NORAD ID: 47877
Int'l Code: 2021-021T
Perigee: 553.0 km
Apogee: 555.8 km
Inclination: 53.1 °
Period: 95.6 minutes
Semi major axis: 6925 km
RCS: Unknown
Launch date: March 14, 2021
Source: United States (US)
Launch site: AIR FORCE EASTERN TEST RANGE (AFETR)
aabbcc
Your satellite tracking list
Your tracking list is empty




NASA's NSSDC Master Catalog

Two Line Element Set (TLE):
1 47877U 21021T   22025.13171792 -.00000893  00000-0 -41085-4 0  9995
2 47877  53.0560 185.8399 0001992  83.3815 276.7401 15.06390473 48946
Source of the keplerian elements: AFSPC